Simultaneous Nadir Overpasses (SNOs) Predictions

Prediction of SNOs between METOP-B and TERRA Satellite Orbit:

Table of predicted SNOs for the next 14.0 days since TLE Epoch: 11/14/2015
Index Date (METOP-B) Time (METOP-B) Lat,Lon (METOP-B) SZA (METOP-B ) Date (TERRA) Time (TERRA) Lat,Lon (TERRA) SZA (TERRA ) Distance(km) Time Diff (sec)
1 11/14/2015 03:22:40 81.17, 169.98 101.70 11/14/2015 03:23:53 80.94, 170.89 101.66 29.71 73
2 11/14/2015 04:13:02 -81.33, -15.47 77.40 11/14/2015 04:13:03 -81.33, -15.31 77.38 2.69 1
3 11/14/2015 05:03:41 81.34, 152.62 102.71 11/14/2015 05:02:29 81.34, 152.44 102.65 3.06 72
4 11/16/2015 22:56:42 81.33,-116.64 103.27 11/16/2015 22:57:51 81.33,-116.46 103.32 3.04 69
5 11/16/2015 23:47:22 -81.33, 50.97 76.70 11/16/2015 23:47:18 -81.33, 51.12 76.68 2.64 4
6 11/19/2015 18:31:01 81.33, -50.28 103.91 11/19/2015 18:32:05 81.33, -50.19 103.95 1.54 64
7 11/19/2015 19:21:40 -81.34, 117.75 76.00 11/19/2015 19:21:31 -81.34, 117.79 76.00 0.97 9
8 11/22/2015 14:05:20 81.33, 16.42 104.55 11/22/2015 14:06:19 81.33, 16.31 104.56 1.92 59
9 11/22/2015 14:56:00 -81.34,-175.90 75.41 11/22/2015 14:55:46 -81.33,-176.06 75.44 2.90 14
10 11/25/2015 09:39:40 81.33, 82.68 105.08 11/25/2015 09:40:33 81.32, 82.66 105.10 0.82 53




NCC Satellite Simultaneous Nadir Overpasses (SNOs) Prediction Service
